Satellite-Ground Cal/Val Region Overpasses Predictions

Prediction of Satellite NPP Overpassing Cal/Val Region: PacNW

Region Location: (Latitude: 10.00, Longitude: 139.50) to (Latitude: 22.70, Longitude: 165.60).

Table of predicted overpasses for the next 14.0 days since TLE Epoch: 7/27/2019
Interval Starting Time Starting Location Ending Time Ending Location
1 07/28/2019 02:33:18 ( 10.03, 161.41) 07/28/2019 02:36:53 ( 22.65, 158.41)
2 07/28/2019 15:05:11 ( 22.68, 158.66) 07/28/2019 15:08:47 ( 10.00, 155.64)
3 07/29/2019 02:14:59 ( 12.57, 165.59) 07/29/2019 02:17:51 ( 22.66, 163.16)
4 07/29/2019 03:55:46 ( 10.05, 140.79) 07/29/2019 03:57:20 ( 15.57, 139.51)
5 07/29/2019 14:46:09 ( 22.67, 163.41) 07/29/2019 14:49:44 ( 10.05, 160.41)
6 07/30/2019 03:36:44 ( 10.00, 145.56) 07/30/2019 03:40:20 ( 22.68, 142.54)
7 07/30/2019 14:30:11 ( 11.92, 165.59) 07/30/2019 14:30:43 ( 10.04, 165.16)
8 07/30/2019 16:08:38 ( 22.65, 142.79) 07/30/2019 16:12:13 ( 10.03, 139.79)
9 07/31/2019 03:17:43 ( 10.01, 150.32) 07/31/2019 03:21:19 ( 22.69, 147.30)
10 07/31/2019 15:49:35 ( 22.70, 147.56) 07/31/2019 15:53:11 ( 10.02, 144.54)
11 08/01/2019 02:58:41 ( 10.03, 155.07) 08/01/2019 03:02:16 ( 22.65, 152.07)
12 08/01/2019 15:30:34 ( 22.69, 152.31) 08/01/2019 15:34:10 ( 10.01, 149.30)
13 08/02/2019 02:39:40 ( 10.04, 159.82) 08/02/2019 02:43:15 ( 22.66, 156.82)
14 08/02/2019 15:11:32 ( 22.67, 157.07) 08/02/2019 15:15:07 ( 10.05, 154.06)
15 08/03/2019 02:20:38 ( 10.05, 164.58) 08/03/2019 02:24:13 ( 22.67, 161.58)
16 08/03/2019 14:52:31 ( 22.66, 161.82) 08/03/2019 14:56:06 ( 10.04, 158.82)
17 08/04/2019 03:43:06 ( 10.01, 143.97) 08/04/2019 03:46:42 ( 22.69, 140.95)
18 08/04/2019 14:34:37 ( 18.66, 165.60) 08/04/2019 14:37:04 ( 10.03, 163.57)
19 08/04/2019 16:14:59 ( 22.64, 141.20) 08/04/2019 16:16:58 ( 15.66, 139.51)
20 08/05/2019 03:24:04 ( 10.02, 148.73) 08/05/2019 03:27:39 ( 22.65, 145.72)
21 08/05/2019 15:55:57 ( 22.69, 145.97) 08/05/2019 15:59:33 ( 10.01, 142.95)
22 08/06/2019 03:05:03 ( 10.04, 153.48) 08/06/2019 03:08:38 ( 22.66, 150.48)
23 08/06/2019 15:36:55 ( 22.68, 150.72) 08/06/2019 15:40:30 ( 10.06, 147.72)
24 08/07/2019 02:46:01 ( 10.05, 158.24) 08/07/2019 02:49:36 ( 22.67, 155.23)
25 08/07/2019 15:17:54 ( 22.66, 155.48) 08/07/2019 15:21:29 ( 10.04, 152.48)
26 08/08/2019 02:26:59 ( 10.01, 163.00) 08/08/2019 02:30:35 ( 22.69, 159.99)
27 08/08/2019 14:58:53 ( 22.65, 160.23) 08/08/2019 15:02:28 ( 10.03, 157.23)
28 08/09/2019 02:10:34 ( 19.24, 165.59) 08/09/2019 02:11:32 ( 22.64, 164.75)
29 08/09/2019 03:49:27 ( 10.03, 142.38) 08/09/2019 03:52:53 ( 22.12, 139.51)
30 08/09/2019 14:39:50 ( 22.69, 165.00) 08/09/2019 14:43:26 ( 10.02, 161.98)
31 08/09/2019 16:21:20 ( 22.69, 139.63) 08/09/2019 16:21:28 ( 22.22, 139.51)
32 08/10/2019 03:30:26 ( 10.04, 147.14) 08/10/2019 03:34:01 ( 22.66, 144.13)


NCC Satellite Cal/Val Overpasses Prediction Service
